Погода в Утате

Россия / Республика Бурятия     50°49′36″N   102°47′00″E
темп.,
°C
ветер,
м/с
пор.,
м/с
влажн.,
%
обл.,
%
осадки,
мм/ч
давл.,
гПа
погр.,
м
6 марта, сб
сб623:00−17зсз118245 0.0 102520
02:00−17зсз128149 0.0 102620
05:00−15зсз1181100 0.0 102621
08:00−18сз118454 0.0 102920
11:00−9сз01731 0.0 1028215
14:00−3зсз15614 0.0 1025844
17:00−2з156884 0.0 1022901
20:00−10зюз117592 0.0 102421
7 марта, вс
вс723:00−13з1179100 0.0 102321
02:00−16зсз018062 0.0 102320
05:00−17сз11821 0.0 102220
08:00−18зсз11821 0.0 102220
11:00−8сз11730 0.0 1020232
14:00−3ссз02700 0.0 1017468
17:00−2сз01670 0.0 1016387
20:00−9з117733 0.0 101821
8 марта, пн
пн823:00−11зсз1179100 0.0 101921
02:00−12зсз118199 0.0 102021
05:00−14зсз118253 0.0 102121
08:00−13зсз118276 0.0 102421
11:00−6зсз1272100 0.0 1023242
14:00−1зсз375899 0.0 1022925
17:00−1зсз266513 0.0 1021893
20:00−9з11756 0.0 102421
9 марта, вт
вт923:00−12сз01790 0.0 102521
02:00−14св01830 0.0 102421
05:00−15ссв11860 0.0 102220
08:00−16ссз118620 0.0 102220
11:00−7с0173100 0.0 1020178
14:00−2ссз1269100 0.0 1017392
17:00−1сз126986 0.0 1017366
20:00−8зсз118152 0.0 102121
10 марта, ср
ср1023:00−11сз12840 0.0 102421
02:00−12зсз118431 0.0 102521
05:00−14сз118413 0.0 102720
08:00−15ссз01867 0.0 102820
11:00−7в00740 0.0 1026233
14:00−2вюв12700 0.0 1023519
17:00−1юв13680 0.0 1021491
20:00−9юв01840 0.0 102221